Weather reports worldwide

Advertisment
Decimomannu, Italy (16546): temperature & dewpoint: 10.07.2018 18:00:00 - 16.07.2018 18:00:00 (CEST)Decimomannu, Italy (16546): wind speed: 10.07.2018 18:00:00 - 16.07.2018 18:00:00 (CEST)Decimomannu, Italy (16546): wind direction: 10.07.2018 18:00:00 - 16.07.2018 18:00:00 (CEST)Decimomannu, Italy (16546): reduced air pressure: 10.07.2018 18:00:00 - 16.07.2018 18:00:00 (CEST)Decimomannu, Italy (16546): visibility: 10.07.2018 18:00:00 - 16.07.2018 18:00:00 (CEST)
Date & Time tt [°C] td [°C] ff [km/h] ff [kn] dd ppp [hPa] vv [km]
16.07.2018 18:00:00 - - - - - - -
16.07.2018 17:00:00 32,2 27,0 29 16 S 1010,8 15
16.07.2018 16:00:00 32,0 28,0 26 14 ESE - 10
16.07.2018 15:00:00 36,0 24,0 18 10 NNW - 10
16.07.2018 14:00:00 37,4 20,3 8 4 NE 1012,4 15
16.07.2018 13:00:00 35,0 22,0 5 3 SE - 10
16.07.2018 12:00:00 32,0 26,0 15 8 NNW - 10
16.07.2018 11:00:00 31,2 27,6 11 6 WSW 1012,9 12
16.07.2018 10:00:00 28,0 26,0 5 3 ESE - 10
16.07.2018 09:00:00 27,0 25,0 18 10 W - 10
16.07.2018 08:00:00 26,0 24,8 5 3 NNW 1012,7 12
16.07.2018 07:00:00 25,0 23,0 13 7 ENE - 8
16.07.2018 06:00:00 25,0 24,0 2 1 ENE - 8
16.07.2018 05:00:00 24,4 23,4 8 4 N 1014,4 10
16.07.2018 04:00:00 24,0 23,0 8 4 N - 10
16.07.2018 03:00:00 24,0 23,0 4 2 SE - 10
16.07.2018 02:00:00 25,0 23,8 5 3 NW 1013,2 10
16.07.2018 01:00:00 25,0 24,0 5 3 NNW - 10
16.07.2018 00:00:00 26,0 25,0 11 6 NNW - 10
15.07.2018 23:00:00 27,0 26,1 9 5 N 1013,9 20
15.07.2018 22:00:00 29,0 27,0 5 3 NNW - 10
15.07.2018 21:00:00 30,0 27,0 11 6 NNW - 10
15.07.2018 20:00:00 33,4 25,1 16 9 NNW 1012,9 20
15.07.2018 19:00:00 34,0 26,0 22 12 N - 10
15.07.2018 18:00:00 35,0 26,0 22 12 NNW - 10
15.07.2018 17:00:00 36,0 25,8 26 14 NW 1013,8 15
15.07.2018 16:00:00 37,0 25,0 28 15 NNW - 10
15.07.2018 15:00:00 35,0 26,0 24 13 NNW - 10
15.07.2018 14:00:00 33,6 26,6 16 9 NW 1014,5 15
15.07.2018 13:00:00 33,0 27,0 18 10 NNW - 10
15.07.2018 12:00:00 31,0 26,0 15 8 NNW - 10
15.07.2018 11:00:00 29,6 25,8 18 10 NNW 1014,8 15
15.07.2018 10:00:00 29,0 26,0 18 10 NNW - 10
15.07.2018 09:00:00 27,0 25,0 9 5 NNW - 10
15.07.2018 08:00:00 23,6 22,2 8 4 WNW 1014,8 10
15.07.2018 07:00:00 24,0 22,0 4 2 W - 10
15.07.2018 06:00:00 24,0 23,0 4 2 WNW - 10
15.07.2018 05:00:00 24,2 22,8 4 2 WNW 1013,9 12
15.07.2018 04:00:00 25,0 23,0 4 2 WNW - 10
15.07.2018 03:00:00 26,0 24,0 9 5 WNW - 10
15.07.2018 02:00:00 26,0 24,6 9 5 W 1014,0 12
15.07.2018 01:00:00 26,0 25,0 9 5 W - 10
15.07.2018 00:00:00 26,0 25,0 11 6 W - 10
14.07.2018 23:00:00 27,0 26,1 8 4 W 1013,8 12
14.07.2018 22:00:00 28,0 28,0 15 8 W - 10
14.07.2018 21:00:00 28,0 27,0 18 10 W - 10
14.07.2018 20:00:00 30,0 26,6 22 12 SW 1013,0 30
14.07.2018 19:00:00 31,0 29,0 11 6 S - 10
14.07.2018 18:00:00 32,0 29,0 21 11 SE - 10
14.07.2018 17:00:00 33,0 28,6 26 14 SE 1013,3 30
14.07.2018 16:00:00 33,0 21,0 26 14 SSE - 10
14.07.2018 15:00:00 35,0 21,0 26 14 SSE - 10
14.07.2018 14:00:00 35,0 19,4 26 14 SSE 1013,6 25
14.07.2018 13:00:00 35,0 19,0 24 13 SSE - 10
14.07.2018 12:00:00 34,0 21,0 21 11 SSE - 10
14.07.2018 11:00:00 34,0 20,4 21 11 SSE 1014,2 25
14.07.2018 10:00:00 32,0 23,0 13 7 SE - 10
14.07.2018 09:00:00 29,0 23,0 8 4 NNE - 10
14.07.2018 08:00:00 27,4 23,7 5 3 E 1013,6 20
14.07.2018 07:00:00 26,0 23,0 5 3 NNE - 10
14.07.2018 06:00:00 27,0 22,0 9 5 NNE - 10
14.07.2018 05:00:00 28,0 22,5 8 4 E 1014,6 15
14.07.2018 04:00:00 28,0 27,0 9 5 E - 10
14.07.2018 03:00:00 26,0 25,0 22 12 ESE - 10
14.07.2018 02:00:00 26,2 24,8 9 5 ENE 1014,7 10
14.07.2018 01:00:00 26,0 24,0 8 4 E - 10
14.07.2018 00:00:00 27,0 25,0 8 4 ESE - 10
13.07.2018 23:00:00 27,4 25,2 5 3 E 1016,0 15
13.07.2018 22:00:00 28,0 24,0 8 4 ESE - 10
13.07.2018 21:00:00 29,0 24,0 15 8 SSE - 10
13.07.2018 20:00:00 32,4 22,2 21 11 SE 1013,7 20
13.07.2018 19:00:00 33,0 22,0 22 12 SSE - 10
13.07.2018 18:00:00 35,0 21,0 22 12 SE - 10
13.07.2018 17:00:00 36,0 19,9 22 12 SE 1014,5 20
13.07.2018 16:00:00 36,0 20,0 18 10 SE - 10
13.07.2018 15:00:00 36,0 19,0 22 12 SSE - 10
13.07.2018 14:00:00 37,2 20,5 11 6 SSE 1014,8 25
13.07.2018 13:00:00 37,0 21,0 15 8 SE - 10
13.07.2018 12:00:00 36,0 21,0 8 4 SE - 10
13.07.2018 11:00:00 33,0 21,2 8 4 S 1014,9 20
13.07.2018 10:00:00 30,0 22,0 5 3 NW - 10
13.07.2018 09:00:00 28,0 24,0 4 2 N - 10
13.07.2018 08:00:00 23,6 21,7 4 2 WNW 1015,2 20
13.07.2018 07:00:00 21,0 20,0 4 2 SW - 10
13.07.2018 06:00:00 22,0 20,0 5 3 NW - 10
13.07.2018 05:00:00 23,0 21,8 11 6 NE 1015,2 15
13.07.2018 04:00:00 - - - - - - -
13.07.2018 03:00:00 25,0 24,0 8 4 ENE - 10
13.07.2018 02:00:00 24,8 24,0 4 2 ENE 1015,2 10
13.07.2018 01:00:00 25,0 24,0 9 5 E - 10
13.07.2018 00:00:00 26,0 22,0 8 4 E - 10
12.07.2018 23:00:00 27,0 22,6 9 5 SSE 1015,1 15
12.07.2018 22:00:00 27,0 25,0 16 9 SSE - 10
12.07.2018 21:00:00 29,0 24,0 18 10 SE - 10
12.07.2018 20:00:00 31,4 19,1 22 12 SE 1014,2 20
12.07.2018 19:00:00 32,0 18,0 21 11 SE - 10
12.07.2018 18:00:00 - - - - - - -
12.07.2018 17:00:00 34,4 17,6 24 13 SSE 1013,7 20
12.07.2018 16:00:00 35,0 17,0 26 14 SSE - 10
12.07.2018 15:00:00 35,0 18,0 29 16 SSE - 10
12.07.2018 14:00:00 35,0 17,7 22 12 SSE 1013,8 20
12.07.2018 13:00:00 35,0 18,0 21 11 SSE - 10
12.07.2018 12:00:00 35,0 18,0 11 6 S - 10
12.07.2018 11:00:00 32,2 19,5 5 3 NE 1014,3 20
12.07.2018 10:00:00 30,0 21,0 5 3 W - 10
12.07.2018 09:00:00 26,0 21,0 8 4 NNW - 10
12.07.2018 08:00:00 23,4 21,1 5 3 W 1014,2 15
12.07.2018 07:00:00 20,0 19,0 4 2 NNW - 10
12.07.2018 06:00:00 20,0 19,0 9 5 NNW - 10
12.07.2018 05:00:00 21,4 19,3 8 4 NW 1014,7 15
12.07.2018 04:00:00 22,0 21,0 5 3 NNE - 10
12.07.2018 03:00:00 22,0 21,0 8 4 NNE - 10
12.07.2018 02:00:00 23,6 21,5 5 3 NNE 1014,5 16
12.07.2018 01:00:00 25,0 21,0 9 5 N - 10
12.07.2018 00:00:00 25,0 21,0 8 4 NW - 10
11.07.2018 23:00:00 26,4 20,5 9 5 NW 1013,5 15
11.07.2018 22:00:00 28,0 19,0 8 4 NNW - 10
11.07.2018 21:00:00 29,0 19,0 9 5 N - 10
11.07.2018 20:00:00 31,2 20,2 21 11 N 1012,7 20
11.07.2018 19:00:00 32,0 18,0 22 12 NNW - 10
11.07.2018 18:00:00 34,0 18,0 24 13 NNW - 10
11.07.2018 17:00:00 34,0 18,5 24 13 NNW 1012,6 20
11.07.2018 16:00:00 34,0 19,0 22 12 NNW - 10
11.07.2018 15:00:00 34,0 20,0 22 12 NNW - 10
11.07.2018 14:00:00 33,6 20,4 18 10 NNW 1013,1 20
11.07.2018 13:00:00 33,0 20,0 15 8 N - 10
11.07.2018 12:00:00 32,0 19,0 15 8 NNW - 10
11.07.2018 11:00:00 30,2 20,2 15 8 NNW 1013,9 20
11.07.2018 10:00:00 28,0 22,0 9 5 NW - 10
11.07.2018 09:00:00 25,0 23,0 11 6 NNW - 10
11.07.2018 08:00:00 22,4 20,7 8 4 NW 1013,8 20
11.07.2018 07:00:00 21,0 20,0 4 2 N - 10
11.07.2018 06:00:00 21,0 19,0 11 6 NNW - 10
11.07.2018 05:00:00 22,0 20,5 11 6 NW 1013,8 15
11.07.2018 04:00:00 23,0 22,0 8 4 WNW - 10
11.07.2018 03:00:00 23,0 21,0 11 6 NNW - 10
11.07.2018 02:00:00 23,4 21,7 13 7 N 1014,1 15
11.07.2018 01:00:00 25,0 23,0 11 6 N - 10
11.07.2018 00:00:00 25,0 23,0 11 6 N - 10
10.07.2018 23:00:00 26,8 22,0 15 8 N 1013,8 16
10.07.2018 22:00:00 27,0 23,0 11 6 NW - 10
10.07.2018 21:00:00 28,0 22,0 24 13 NW - 10
10.07.2018 20:00:00 30,0 22,7 21 11 NW 1012,7 25
10.07.2018 19:00:00 32,0 23,0 24 13 NW - 10
10.07.2018 18:00:00 33,0 23,0 24 13 NW - 10

tt = temperature
td = dewpoint
ff = wind speed
dd = wind direction
ppp = reduced air pressure
vv = visibility

Next stations